User: anonymous   Login
Location: Cypress Hills Dark-Sky Preserve - CHICO
(49.6176°N, 110.2634°W)
Time: 14:56:08
(UTC-06:00)
Language:

SPOT 5 - Orbit

View from above orbital plane
View from above orbital plane
View from above satellite
View from above satellite

Ground track
Ground track

The orbit data is extracted from the following two-line orbital elements,

1 27421U 02021A   17084.75448431 -.00000005 +00000-0 +10807-4 0  9993
2 27421 098.4155 147.9252 0134286 223.5681 135.4843 14.51846599773569
Epoch (UTC): 25 March 2017 18:06:27
Eccentricity: 0.0134286
inclination: 98.4155°
perigee height: 624 km
apogee height: 815 km
right ascension of ascending node: 147.9252°
argument of perigee: 223.5681°
revolutions per day: 14.51846599
mean anomaly at epoch: 135.4843°
orbit number at epoch: 77356

The dashed part of the orbit path shows where the satellite is in the earth's shadow,  

DLR